Previsão horária em Cerekwica

Hoje, 29 Julho, Quinta-feira

Tempo Temperatura Precipitação Vento Pressão Humidade
00:00 +18°C° 0 mm 2 m/s 743 mmHg 92%
01:00 +17°C° 0 mm 2 m/s 744 mmHg 92%
02:00 +17°C° 0 mm 2 m/s 743 mmHg 91%
03:00 +17°C° 0 mm 2 m/s 743 mmHg 91%
04:00 +16°C° 0 mm 2 m/s 743 mmHg 90%
05:00 +18°C° 0 mm 3 m/s 743 mmHg 84%
06:00 +19°C° 0 mm 3 m/s 744 mmHg 79%
07:00 +20°C° 0 mm 3 m/s 744 mmHg 73%
08:00 +22°C° 0 mm 4 m/s 744 mmHg 66%
09:00 +23°C° 0 mm 5 m/s 744 mmHg 59%
10:00 +26°C° 0 mm 5 m/s 744 mmHg 51%
11:00 +26°C° 0.1 mm 5 m/s 743 mmHg 47%
12:00 +27°C° 0.1 mm 6 m/s 743 mmHg 43%
13:00 +27°C° 0.1 mm 6 m/s 743 mmHg 39%
14:00 +27°C° 0 mm 6 m/s 743 mmHg 39%
15:00 +27°C° 0 mm 6 m/s 743 mmHg 39%
16:00 +27°C° 0 mm 6 m/s 743 mmHg 38%
17:00 +26°C° 0 mm 5 m/s 743 mmHg 44%
18:00 +25°C° 0 mm 4 m/s 743 mmHg 50%
19:00 +22°C° 0 mm 3 m/s 743 mmHg 56%
20:00 +21°C° 0 mm 2 m/s 743 mmHg 59%
21:00 +20°C° 0 mm 2 m/s 743 mmHg 62%
22:00 +19°C° 0 mm 2 m/s 743 mmHg 65%
23:00 +18°C° 0 mm 2 m/s 743 mmHg 66%

Amanhã, 30 Julho, Sexta-feira

Tempo Temperatura Precipitação Vento Pressão Humidade
00:00 +18°C° 0 mm 2 m/s 743 mmHg 67%
01:00 +17°C° 0 mm 2 m/s 743 mmHg 68%
02:00 +17°C° 0 mm 2 m/s 743 mmHg 70%
03:00 +16°C° 0 mm 2 m/s 743 mmHg 72%
04:00 +16°C° 0 mm 2 m/s 743 mmHg 75%
05:00 +17°C° 0 mm 2 m/s 743 mmHg 71%
06:00 +18°C° 0 mm 2 m/s 743 mmHg 67%
07:00 +19°C° 0 mm 2 m/s 743 mmHg 63%
08:00 +21°C° 0 mm 3 m/s 743 mmHg 57%
09:00 +22°C° 0 mm 3 m/s 743 mmHg 52%
10:00 +25°C° 0 mm 4 m/s 743 mmHg 46%
11:00 +26°C° 0 mm 4 m/s 742 mmHg 43%
12:00 +27°C° 0 mm 5 m/s 742 mmHg 39%
13:00 +28°C° 0 mm 5 m/s 742 mmHg 35%
14:00 +28°C° 0 mm 5 m/s 741 mmHg 35%
15:00 +28°C° 0 mm 5 m/s 741 mmHg 35%
16:00 +29°C° 0 mm 5 m/s 741 mmHg 35%
17:00 +27°C° 0 mm 4 m/s 741 mmHg 41%
18:00 +26°C° 0 mm 3 m/s 741 mmHg 46%
19:00 +24°C° 0 mm 2 m/s 740 mmHg 52%
20:00 +23°C° 0 mm 1 m/s 740 mmHg 53%
21:00 +22°C° 0 mm 1 m/s 740 mmHg 55%
22:00 +19°C° 0 mm 0 m/s 740 mmHg 57%
23:00 +20°C° 0 mm 1 m/s 740 mmHg 58%

Depois de amanhã, 31 Julho, Sábado

Tempo Temperatura Precipitação Vento Pressão Humidade
00:00 +20°C° 0 mm 1 m/s 740 mmHg 60%
01:00 +20°C° 0 mm 1 m/s 740 mmHg 61%
02:00 +19°C° 0 mm 1 m/s 740 mmHg 63%
03:00 +19°C° 0 mm 1 m/s 740 mmHg 64%
04:00 +18°C° 0 mm 2 m/s 739 mmHg 66%
05:00 +19°C° 0.1 mm 2 m/s 740 mmHg 67%
06:00 +20°C° 0.1 mm 3 m/s 740 mmHg 69%
07:00 +20°C° 0.1 mm 4 m/s 740 mmHg 71%
08:00 +21°C° 0.1 mm 3 m/s 740 mmHg 69%
09:00 +22°C° 0.1 mm 3 m/s 740 mmHg 68%
10:00 +22°C° 0.1 mm 3 m/s 740 mmHg 66%
11:00 +25°C° 0.2 mm 3 m/s 740 mmHg 60%
12:00 +26°C° 0.2 mm 4 m/s 740 mmHg 54%
13:00 +27°C° 0.2 mm 5 m/s 740 mmHg 48%
14:00 +27°C° 0.1 mm 5 m/s 740 mmHg 45%
15:00 +27°C° 0.1 mm 5 m/s 740 mmHg 42%
16:00 +28°C° 0.1 mm 5 m/s 740 mmHg 39%
17:00 +26°C° 0 mm 4 m/s 740 mmHg 42%
18:00 +25°C° 0 mm 4 m/s 740 mmHg 44%
19:00 +23°C° 0 mm 4 m/s 740 mmHg 47%
20:00 +21°C° 0 mm 3 m/s 740 mmHg 51%
21:00 +20°C° 0 mm 3 m/s 740 mmHg 55%
22:00 +18°C° 0 mm 2 m/s 741 mmHg 59%
23:00 +18°C° 0 mm 2 m/s 741 mmHg 62%

1 Agosto, Domingo

Tempo Temperatura Precipitação Vento Pressão Humidade
00:00 +17°C° 0 mm 2 m/s 741 mmHg 65%
01:00 +16°C° 0 mm 2 m/s 741 mmHg 68%
02:00 +16°C° 0 mm 2 m/s 741 mmHg 69%
03:00 +16°C° 0 mm 2 m/s 741 mmHg 71%
04:00 +15°C° 0 mm 2 m/s 741 mmHg 72%
05:00 +16°C° 0 mm 2 m/s 741 mmHg 69%
06:00 +17°C° 0 mm 2 m/s 741 mmHg 66%
07:00 +19°C° 0 mm 2 m/s 741 mmHg 62%
08:00 +19°C° 0.1 mm 2 m/s 741 mmHg 63%
09:00 +20°C° 0.1 mm 1 m/s 741 mmHg 65%
10:00 +20°C° 0.1 mm 1 m/s 741 mmHg 66%
11:00 +19°C° 1.3 mm 1 m/s 741 mmHg 73%
12:00 +18°C° 1.3 mm 1 m/s 741 mmHg 80%
13:00 +18°C° 1.3 mm 1 m/s 741 mmHg 88%
14:00 +18°C° 0.2 mm 1 m/s 741 mmHg 89%
15:00 +16°C° 0.2 mm 1 m/s 741 mmHg 91%
16:00 +16°C° 0.2 mm 2 m/s 741 mmHg 92%
17:00 +16°C° 0.1 mm 2 m/s 741 mmHg 92%
18:00 +16°C° 0.1 mm 2 m/s 741 mmHg 92%
19:00 +16°C° 0.1 mm 2 m/s 740 mmHg 92%
20:00 +16°C° 0 mm 2 m/s 741 mmHg 92%
21:00 +16°C° 0 mm 2 m/s 741 mmHg 92%
22:00 +16°C° 0 mm 2 m/s 741 mmHg 92%
23:00 +16°C° 0.4 mm 2 m/s 741 mmHg 92%

2 Agosto, Segunda-feira

Tempo Temperatura Precipitação Vento Pressão Humidade
00:00 +15°C° 0.4 mm 2 m/s 741 mmHg 92%
01:00 +15°C° 0.4 mm 2 m/s 741 mmHg 91%
02:00 +15°C° 0.5 mm 2 m/s 741 mmHg 92%
03:00 +15°C° 0.5 mm 2 m/s 741 mmHg 93%
04:00 +15°C° 0.5 mm 2 m/s 741 mmHg 94%
05:00 +15°C° 0.4 mm 2 m/s 742 mmHg 92%
06:00 +15°C° 0.4 mm 1 m/s 742 mmHg 90%
07:00 +15°C° 0.4 mm 1 m/s 743 mmHg 89%
08:00 +18°C° 0 mm 1 m/s 743 mmHg 82%
09:00 +19°C° 0 mm 1 m/s 743 mmHg 76%
10:00 +20°C° 0 mm 1 m/s 743 mmHg 69%
11:00 +21°C° 0.4 mm 1 m/s 743 mmHg 64%
12:00 +21°C° 0.4 mm 2 m/s 743 mmHg 60%
13:00 +24°C° 0.4 mm 3 m/s 743 mmHg 55%
14:00 +22°C° 0.4 mm 3 m/s 743 mmHg 57%
15:00 +22°C° 0.4 mm 3 m/s 743 mmHg 59%
16:00 +21°C° 0.4 mm 4 m/s 743 mmHg 62%
17:00 +21°C° 0.3 mm 3 m/s 743 mmHg 66%
18:00 +20°C° 0.3 mm 3 m/s 743 mmHg 70%
19:00 +19°C° 0.3 mm 3 m/s 743 mmHg 74%
20:00 +18°C° 0.1 mm 3 m/s 743 mmHg 78%
21:00 +17°C° 0.1 mm 3 m/s 743 mmHg 82%
22:00 +16°C° 0.1 mm 2 m/s 744 mmHg 87%
23:00 +15°C° 0.1 mm 2 m/s 744 mmHg 90%

3 Agosto, Terça-feira

Tempo Temperatura Precipitação Vento Pressão Humidade
00:00 +15°C° 0.1 mm 2 m/s 744 mmHg 92%
01:00 +14°C° 0.1 mm 2 m/s 744 mmHg 95%
02:00 +14°C° 0 mm 2 m/s 745 mmHg 95%
03:00 +14°C° 0 mm 2 m/s 745 mmHg 95%
04:00 +14°C° 0 mm 2 m/s 745 mmHg 95%
05:00 +15°C° 0 mm 2 m/s 745 mmHg 91%
06:00 +16°C° 0 mm 2 m/s 745 mmHg 87%
07:00 +17°C° 0 mm 2 m/s 746 mmHg 82%
08:00 +18°C° 0 mm 2 m/s 746 mmHg 75%
09:00 +20°C° 0 mm 2 m/s 746 mmHg 67%
10:00 +21°C° 0 mm 3 m/s 746 mmHg 59%
11:00 +23°C° 0.2 mm 2 m/s 745 mmHg 56%
12:00 +23°C° 0.2 mm 2 m/s 745 mmHg 54%
13:00 +24°C° 0.2 mm 2 m/s 745 mmHg 51%
14:00 +24°C° 0 mm 2 m/s 745 mmHg 50%
15:00 +25°C° 0 mm 1 m/s 744 mmHg 49%
16:00 +25°C° 0 mm 1 m/s 744 mmHg 48%
17:00 +24°C° 0 mm 1 m/s 744 mmHg 53%
18:00 +23°C° 0 mm 1 m/s 744 mmHg 58%
19:00 +22°C° 0 mm 1 m/s 744 mmHg 63%
20:00 +19°C° 0.2 mm 2 m/s 744 mmHg 69%
21:00 +18°C° 0.2 mm 2 m/s 744 mmHg 75%
22:00 +17°C° 0.2 mm 2 m/s 744 mmHg 81%
23:00 +17°C° 0.1 mm 2 m/s 744 mmHg 81%
Mostrar mais

Necessitamos do seu Consentimento

A Meteoprog e os seus Fornecedores de Serviços podem armazenar e aceder a dados pessoais como cookies, identificadores do dispositivo ou outras tecnologias semelhantes existentes no seu dispositivo e processar estes dados para personalizar conteúdos e anúncios, assim como funcionalidades nas redes sociais e análise de tráfego.

  • Armazenar e/ou aceder a informações no seu dispositivo

    Os cookies, identificadores do dispositivo ou outras informações podem ser armazenados ou acedidos no seu dispositivo, para os fins acima indicados.

  • Anúncios e conteúdos personalizados, medição de anúncios e conteúdos, dados sobre o público-alvo e desenvolvimento de produtos

    Os anúncios e os conteúdos podem ser personalizados com base num perfil. Podem ser adicionados dados adicionais para uma maior personalização dos anúncios e dos conteúdos. A eficácia dos anúncios e dos conteúdos pode ser medida. Podem ser obtidas informações sobre o público que visualizou os anúncios e os conteúdos. Estes dados podem ser usados para desenvolver ou melhorar sistemas, softwares ou a experiência do utilizador.

Ao clicar em "Eu concordo”, permitirá o uso de cookies, identificadores do dispositivo e web beacons mencionados ou outras tecnologias semelhantes. As configurações do navegador do seu dispositivo podem ser alteradas.

Para certos fins, podem ser invocados interesses legítimos ao invés de consentimento. Pode ler mais informação sobre este assunto na nossa Política de Privacidade e Cookies.